RH
100 100 100 99 99 40 63 53 21 31 53 33 21 22 13 10 8 7 5 5 5 6 6 6 7 9 10 14 18 13 9 11 15 11 5 7 14 16 17 19 21 22 21 21 24
95 99 100 100 93 69 44 58 44 66 32 23 20 23 14 11 10 7 6 6 6 6 6 8 10 10 15 16 10 11 13 14 6 4 9 13 16 18 19 20 21 21 22 24 26
85 96 93 84 98 86 90 88 66 32 20 20 22 25 14 12 11 8 7 6 6 7 10 10 11 14 14 10 10 15 12 4 6 10 14 16 18 19 19 19 19 20 22 25 27
97 97 97 96 93 72 56 27 20 17 20 21 26 23 13 12 13 11 10 10 11 11 11 15 14 11 9 10 15 8 3 6 10 14 15 17 18 18 17 18 19 21 24 26 28
91 71 34 33 25 23 24 21 19 22 29 30 31 20 14 12 12 12 12 11 11 12 16 13 11 9 10 17 7 3 5 10 13 15 16 17 17 17 17 16 18 21 24 30 36
62 33 30 22 20 19 19 20 21 25 32 33 31 24 17 14 13 12 11 13 18 16 11 10 9 18 20 6 4 7 12 13 14 15 17 18 16 15 17 18 21 26 30 33 39
33 36 18 16 14 14 15 16 19 21 25 28 30 30 28 23 23 23 21 19 14 11 10 13 22 16 6 4 9 12 14 14 14 16 18 17 16 16 17 20 25 32 35 36 42
42 27 19 15 13 13 12 13 14 16 18 20 20 19 16 15 14 10 9 8 8 11 23 24 10 5 5 9 12 14 14 14 16 17 16 15 15 16 20 24 30 39 39 42 43
53 48 37 29 22 16 13 12 12 12 12 12 11 13 13 14 12 12 14 22 28 29 16 7 5 6 8 12 13 14 14 16 14 15 14 15 18 16 23 30 38 41 44 44 37
44 52 50 46 44 41 36 33 31 30 30 29 30 26 28 28 28 30 30 28 15 7 6 5 6 10 13 13 13 15 18 16 13 16 17 20 25 23 26 36 42 43 36 32 28
7 6 10 30 47 46 44 42 41 40 38 36 36 31 33 31 31 22 10 7 6 6 6 8 11 12 13 13 18 19 16 14 14 15 19 22 30 38 38 41 37 14 14 14 8
12 10 9 8 7 6 7 8 14 22 21 25 23 12 16 10 7 6 6 6 7 8 9 11 12 12 14 19 19 17 15 15 17 21 24 32 35 33 20 14 3 3 5 5 4
53 39 23 12 9 9 9 8 8 8 8 7 7 7 8 8 8 8 8 9 9 10 11 12 14 17 20 21 22 20 21 22 24 29 29 22 10 4 3 3 4 4 5 6 7
3 8 34 50 40 27 15 13 13 12 11 11 10 11 10 10 11 11 10 13 12 14 16 21 25 27 28 28 27 25 20 19 14 10 4 3 2 4 4 5 5 6 8 8 8
5 4 4 4 3 6 40 44 35 28 31 22 22 22 23 19 20 22 24 26 29 33 35 26 24 18 14 11 10 6 4 3 2 2 2 3 3 4 6 6 9 10 12 11 11
16 18 16 8 6 4 4 3 6 25 43 43 41 44 46 43 42 41 40 35 27 18 12 8 5 5 4 3 3 3 3 3 3 3 4 5 6 6 7 9 10 12 12 13 14
24 28 30 25 20 18 14 8 5 4 4 4 3 3 3 3 3 3 3 3 3 3 4 4 4 4 3 4 4 4 4 4 5 6 6 7 7 9 10 12 11 12 16 18 20
28 28 32 36 37 36 34 31 26 17 10 7 6 5 5 5 5 5 5 4 4 4 4 4 4 5 6 6 7 8 8 10 9 8 7 9 11 12 13 16 19 20 20 23 24
40 37 28 28 32 38 39 38 36 35 33 27 24 22 20 18 17 16 15 14 13 12 11 11 11 13 13 14 14 14 20 23 22 22 20 19 18 19 24 24 25 26 26 27 25
40 38 45 40 32 34 41 43 41 39 39 41 43 40 37 35 31 29 27 24 21 23 23 23 20 32 36 36 37 36 35 36 36 32 28 26 27 29 34 33 31 31 32 33 31
48 48 44 48 48 46 45 47 48 49 48 44 43 45 46 45 44 44 45 42 42 42 42 40 38 38 35 32 31 32 32 34 35 37 33 28 28 37 39 39 37 34 35 35 35
59 56 54 51 52 50 48 49 48 52 53 51 49 49 49 48 44 41 41 41 42 42 40 40 35 35 35 33 31 31 31 29 29 30 25 28 18 37 48 47 41 36 41 45 46
60 63 60 59 53 50 50 49 43 39 42 44 46 45 42 42 42 40 41 43 44 44 41 40 33 32 32 33 30 28 29 29 28 26 25 30 20 33 50 49 44 42 45 44 47
63 65 65 61 54 52 52 51 49 47 42 38 37 38 39 42 42 40 39 40 41 41 40 37 35 38 34 35 33 32 31 31 32 28 32 20 27 40 55 51 45 57 58 57 55
65 64 63 58 58 56 54 50 50 50 49 44 40 38 39 42 40 39 39 39 41 42 42 40 36 37 36 35 34 31 29 32 35 35 33 22 26 32 40 38 44 49 58 62 57
68 59 60 58 59 55 51 49 46 45 44 46 48 47 45 49 45 41 41 41 40 42 43 40 33 34 28 31 31 25 27 32 32 34 34 33 26 27 23 24 29 30 33 43 51
88 74 58 64 65 63 66 65 61 58 51 53 50 47 52 52 48 45 43 41 41 38 40 37 38 38 27 28 27 21 27 27 25 24 20 17 16 14 13 16 20 23 26 31 37
Wind_Speed
20 19 31 29 35 41 38 52 50 51 57 55 53 51 49 44 41 39 37 35 32 30 25 22 20 18 18 17 13 9 10 10 12 14 13 4 3 4 8 12 15 19 23 26 28
34 30 30 32 29 44 41 54 52 53 51 51 50 48 45 41 36 34 33 32 30 26 23 22 20 18 15 11 9 9 9 11 13 6 5 6 5 7 11 14 17 21 25 28 31
33 40 44 42 46 49 50 50 50 46 46 47 45 44 41 36 33 30 29 28 26 23 20 18 17 15 11 10 9 10 12 11 7 7 6 6 7 10 12 19 22 24 28 31 34
40 37 47 45 53 48 49 46 46 44 43 42 39 39 36 32 27 27 25 23 21 19 18 15 13 10 9 10 11 13 11 9 9 6 7 9 11 14 18 21 25 27 29 33 36
46 47 39 39 41 43 44 44 44 42 39 36 35 34 30 28 25 24 22 21 19 17 13 12 10 10 9 13 13 9 11 10 9 8 9 13 14 17 21 26 28 31 32 35 37
45 40 39 37 36 37 38 37 37 36 34 31 30 29 25 22 20 19 19 18 15 12 8 9 10 12 14 15 11 11 11 11 10 10 14 15 17 22 24 28 30 32 34 37 39
39 39 38 37 36 36 35 34 32 30 28 26 24 21 18 16 14 16 16 14 12 10 10 12 14 15 16 13 11 12 13 12 12 14 15 18 23 23 27 31 32 34 36 40 41
37 36 36 35 34 33 31 30 29 27 24 23 21 19 16 13 12 10 8 9 11 12 15 16 16 17 15 13 12 14 15 15 14 16 19 22 28 26 29 33 35 36 39 41 42
33 34 31 30 29 28 26 24 22 20 19 17 15 12 11 8 7 7 9 13 16 16 15 17 17 15 14 14 14 17 15 18 19 18 23 26 28 32 31 35 37 40 40 42 41
29 27 28 27 25 23 21 19 16 15 14 13 11 9 8 8 9 12 16 15 15 16 17 16 15 16 16 17 19 17 17 19 22 22 25 27 27 32 37 40 39 40 41 39 38
24 24 25 23 20 20 19 18 16 14 12 11 10 10 11 11 13 14 14 16 17 16 15 15 16 17 19 21 18 17 19 21 25 28 27 30 30 32 38 38 36 38 37 38 39
19 18 18 17 15 14 13 12 12 11 10 11 11 10 12 12 13 14 15 14 14 15 16 16 18 20 22 20 19 20 23 26 28 31 32 32 34 34 33 33 37 37 37 40 41
16 16 15 12 11 10 9 8 8 6 7 8 8 9 10 10 11 11 12 13 15 17 17 20 21 21 21 21 23 25 28 30 32 31 33 35 30 29 31 36 36 37 39 39 40
14 14 12 10 9 8 5 4 4 5 5 5 5 6 7 8 9 11 13 14 17 19 20 20 21 22 23 25 26 29 31 32 32 32 31 33 35 33 36 38 39 39 39 41 41
7 7 8 8 7 6 2 1 2 4 4 7 8 9 11 12 14 14 16 17 18 20 21 21 22 23 24 26 28 28 30 31 32 34 36 37 39 39 40 41 41 39 42 42 41
1 1 4 5 4 3 3 3 4 7 9 10 11 12 13 14 16 17 19 20 20 21 22 22 23 24 26 28 30 33 35 37 38 40 40 41 43 43 45 44 44 45 43 42 40
6 5 5 5 6 7 9 11 12 12 12 14 14 14 16 16 18 19 20 22 23 24 25 26 27 29 31 34 36 37 40 43 45 46 45 47 49 46 46 45 44 41 38 36 35
12 12 10 10 10 11 10 11 14 19 18 19 20 21 22 23 24 26 27 28 29 30 31 32 32 34 36 39 41 43 45 46 51 52 51 47 46 40 34 34 34 32 30 28 28
15 15 16 17 16 15 16 17 17 17 17 21 25 27 28 30 31 31 32 33 34 35 36 38 38 39 40 41 41 41 38 39 39 39 40 38 34 30 30 31 31 31 29 28 24
21 21 21 22 22 22 22 22 22 22 24 24 24 24 25 26 27 28 29 31 33 33 34 34 35 31 33 34 34 36 36 38 39 42 44 42 38 31 33 35 37 36 35 34 31
22 23 24 23 23 23 24 25 28 28 29 29 29 30 30 29 29 31 30 33 33 33 34 35 34 31 32 32 33 34 35 36 37 40 43 45 45 39 38 42 43 43 41 36 38
23 22 21 23 25 26 27 30 30 30 31 32 33 34 35 34 33 33 34 34 34 33 34 34 38 33 32 34 36 38 39 40 43 44 47 46 49 41 43 46 50 50 49 45 46
27 25 26 26 27 29 29 29 28 27 28 30 33 34 32 32 34 31 32 32 32 33 35 34 36 39 39 39 41 44 45 46 47 50 50 53 52 47 46 51 56 55 55 55 53
28 28 30 31 31 31 31 31 31 30 30 30 29 28 28 27 30 32 31 32 33 36 39 42 42 42 46 48 50 51 53 53 51 55 51 61 53 52 51 61 62 61 63 62 61
35 33 32 32 32 34 34 34 33 33 33 32 32 33 33 33 35 39 39 42 42 44 46 49 53 52 49 52 54 54 57 53 52 53 60 58 63 57 63 66 63 63 61 61 62
37 38 35 35 36 38 40 38 36 36 36 35 37 39 40 40 42 44 45 47 49 50 52 54 57 59 60 60 60 61 63 60 59 57 62 62 63 62 62 63 65 65 63 62 61
41 41 44 42 41 42 42 43 43 42 42 40 41 42 44 46 47 48 50 52 53 55 56 59 60 63 63 67 68 65 61 63 62 62 62 61 61 62 62 61 61 59 58 59 59
Wind_Direction
86 99 111 135 132 159 151 153 157 162 162 164 168 176 180 182 181 183 182 184 187 191 198 206 217 230 246 263 275 283 294 302 282 277 281 220 206 278 317 322 333 331 329 325 325
72 86 108 113 123 147 153 147 151 154 157 161 167 176 180 183 184 184 185 188 192 196 202 212 223 237 251 265 275 288 295 273 276 249 195 219 276 311 316 320 326 324 322 321 322
80 93 100 114 117 128 136 138 143 149 154 158 165 176 179 183 183 185 191 194 198 202 212 223 237 246 258 274 289 276 266 262 206 209 217 257 283 300 312 316 321 319 321 323 321
88 95 104 109 115 122 127 133 140 146 150 154 165 175 178 184 186 191 197 201 205 212 222 234 242 252 267 270 258 259 250 209 217 235 247 277 299 306 315 318 319 321 321 319 318
80 82 84 100 110 119 126 132 136 139 143 151 165 174 179 186 189 195 203 209 215 225 227 236 248 260 255 247 256 232 214 227 231 242 263 278 298 309 313 317 319 318 316 317 318
78 77 87 94 102 112 117 122 126 130 137 150 163 174 182 189 194 205 212 218 221 224 229 243 247 239 238 245 218 216 227 235 243 259 277 299 306 309 315 315 315 314 314 316 316
80 84 87 93 97 100 104 109 113 122 132 143 151 160 171 180 191 203 207 212 225 231 242 235 229 231 241 215 214 232 244 247 259 279 296 298 301 309 314 313 313 314 315 313 314
83 84 87 90 94 98 102 105 111 116 123 129 134 141 149 163 178 190 205 226 232 233 224 221 228 235 216 216 231 243 254 263 273 286 295 299 303 313 312 310 312 313 313 313 315
91 89 87 89 91 95 99 103 109 116 121 124 131 141 155 166 185 206 220 218 216 215 219 228 229 219 224 231 241 251 259 272 279 293 297 303 306 308 307 307 312 312 312 314 317
77 86 98 100 98 99 102 107 111 117 125 133 144 164 177 186 198 207 213 214 216 225 232 226 220 227 237 243 250 257 268 278 284 293 300 302 301 304 307 309 312 311 311 314 315
76 77 83 89 100 113 118 123 125 131 141 149 160 176 183 194 203 210 217 225 230 230 229 228 234 239 248 252 260 271 277 281 290 296 299 298 299 306 306 307 308 310 312 312 313
76 83 85 88 91 94 98 105 121 134 142 157 173 187 195 209 221 230 234 236 232 233 236 243 249 253 256 266 277 280 283 287 290 294 297 298 303 304 305 306 310 312 311 312 315
65 70 76 85 92 98 109 116 130 149 172 186 197 209 220 227 231 232 237 241 245 250 254 257 258 261 269 274 278 283 286 290 293 295 300 301 303 305 304 308 312 310 310 310 311
59 64 68 63 63 71 81 97 118 148 173 199 219 241 243 245 254 253 255 258 261 263 264 264 267 273 276 280 285 288 290 293 296 298 301 301 303 308 309 308 306 305 305 304 305
33 43 47 54 57 63 46 319 263 248 250 244 248 250 250 256 255 259 261 262 260 264 268 272 275 279 283 287 288 291 291 294 296 298 300 303 304 305 303 302 301 301 300 301 302
175 5 359 347 332 320 305 301 280 272 270 273 271 262 265 262 264 264 264 265 267 269 271 275 279 282 285 287 290 292 294 297 299 299 300 301 301 303 303 304 301 300 304 305 305
268 239 228 228 264 274 285 282 275 271 270 273 272 267 263 260 262 265 266 268 271 273 277 281 285 289 291 291 292 294 297 297 297 297 298 299 298 302 303 302 301 306 307 310 310
285 283 283 286 285 282 281 280 279 273 273 267 267 268 271 272 274 276 278 279 282 284 285 287 288 289 290 291 293 294 295 296 297 297 296 298 300 304 306 302 304 308 312 311 313
287 280 275 278 282 287 288 287 286 282 280 279 277 276 277 279 281 282 283 284 285 286 286 286 284 287 290 293 294 297 301 302 303 303 307 308 307 308 305 303 302 307 306 308 308
292 288 283 283 283 287 291 295 289 286 285 285 287 285 283 282 283 283 284 282 283 284 285 286 287 295 299 300 301 304 306 307 309 309 310 310 311 311 305 302 302 301 302 305 302
278 285 284 282 283 286 289 294 293 292 286 285 286 288 290 291 291 291 293 293 294 296 297 298 300 305 307 308 311 311 310 309 307 307 308 312 311 313 306 300 298 297 299 299 297
273 272 272 273 281 283 287 292 292 286 284 284 284 287 291 291 294 294 294 294 296 297 298 300 299 302 303 305 305 306 308 308 306 306 304 307 305 306 300 297 296 296 299 297 296
273 268 267 273 273 276 283 289 290 288 284 282 282 284 287 289 293 296 296 293 295 297 298 299 299 302 303 304 303 304 305 303 301 301 303 298 304 299 297 295 292 296 296 294 295
272 270 275 277 278 276 283 287 292 293 294 292 289 289 291 293 295 299 299 299 298 297 297 297 297 299 300 301 301 303 303 301 298 298 298 299 301 296 297 291 293 294 294 294 294
277 273 273 278 277 277 278 285 289 294 296 291 291 292 293 294 295 298 301 302 300 300 299 298 298 297 297 296 297 299 299 298 296 295 292 300 295 294 290 290 290 289 290 292 292
272 273 268 272 278 279 281 284 285 286 290 291 290 288 289 292 292 297 298 298 299 298 298 297 296 297 295 295 296 295 295 299 295 291 290 290 291 288 289 288 288 289 289 288 288
267 267 270 271 271 273 278 283 286 286 286 286 286 288 287 287 290 292 296 297 296 296 296 294 295 295 292 294 292 292 295 292 292 292 292 290 289 290 289 289 289 287 286 285 284